Stations météo

réclame
Mon MeteoGroup
Lakenheath/RAF, Grande-Bretagne (3583): Température de l'air & dewpoint: 12.01.2019 12:00:00 - 18.01.2019 12:00:00 (GMT)Lakenheath/RAF, Grande-Bretagne (3583): Vitesse du vent & gusts: 12.01.2019 12:00:00 - 18.01.2019 12:00:00 (GMT)Lakenheath/RAF, Grande-Bretagne (3583): Direction du vent: 12.01.2019 12:00:00 - 18.01.2019 12:00:00 (GMT)Lakenheath/RAF, Grande-Bretagne (3583): reduced air pressure: 12.01.2019 12:00:00 - 18.01.2019 12:00:00 (GMT)Lakenheath/RAF, Grande-Bretagne (3583): visibility: 12.01.2019 12:00:00 - 18.01.2019 12:00:00 (GMT)Lakenheath/RAF, Grande-Bretagne (3583): Quantités de précipitations: 12.01.2019 12:00:00 - 18.01.2019 12:00:00 (GMT)
Date & Time tt [°C] td [°C] ff [km/h] ff [knt] fx [km/h] fx [knt] dd ppp [hPa] vv [km] rr [mm]
18.01.2019 12:00:00 - - - - - - - - - -
18.01.2019 11:00:00 1,9 -2,4 9 5 - - S 1017,6 10 -
18.01.2019 10:00:00 0,3 -2,9 8 4 - - SE 1017,6 10 -
18.01.2019 09:00:00 - - - - - - - - - -
18.01.2019 08:00:00 -2,6 -4,5 0 0 - - N 1017,6 10 -
18.01.2019 07:00:00 -2,5 -4,7 0 0 - - N 1017,3 10 -
18.01.2019 06:00:00 -1,9 -4,2 5 3 - - SE 1017,6 10 -
18.01.2019 05:00:00 -2,2 -4,4 0 0 - - N 1017,6 10 -
18.01.2019 04:00:00 -2,8 -4,8 5 3 - - SSW 1018,0 10 -
18.01.2019 03:00:00 -3,0 -5,2 8 4 - - SW 1018,3 10 -
18.01.2019 02:00:00 -2,1 -4,8 0 0 - - N 1018,0 10 -
18.01.2019 01:00:00 -1,6 -4,3 5 3 - - SW 1018,3 10 -
18.01.2019 00:00:00 -2,1 -4,6 0 0 - - N 1018,0 10 -
17.01.2019 23:00:00 -1,1 -4,3 8 4 - - WSW 1018,0 10 -
17.01.2019 22:00:00 -0,9 -3,9 11 6 - - SW 1017,6 10 -
17.01.2019 21:00:00 0,3 -3,4 5 3 - - W 1016,9 10 -
17.01.2019 20:00:00 1,0 -3,1 13 7 - - WNW 1016,3 10 -
17.01.2019 19:00:00 1,0 -2,6 18 10 - - W 1015,9 10 -
17.01.2019 18:00:00 1,6 -2,4 13 7 - - WNW 1014,9 10 -
17.01.2019 17:00:00 2,1 -1,5 16 9 - - WNW 1014,6 10 -
17.01.2019 16:00:00 3,8 -1,6 26 14 - - NW 1013,2 10 -
17.01.2019 15:00:00 4,2 -1,8 22 12 - - NW 1011,9 10 0,0
17.01.2019 14:00:00 3,8 -2,6 18 10 - - NW - 10 -
17.01.2019 13:00:00 3,8 -3,0 22 12 48 26 NW - 10 0,0
17.01.2019 12:00:00 3,3 -3,3 24 13 - - NW 1009,8 10 -
17.01.2019 11:00:00 2,6 -3,5 22 12 - - NW 1009,5 10 0,0
17.01.2019 10:00:00 1,7 -3,6 21 11 - - NW 1008,5 10 -
17.01.2019 09:00:00 1,0 -2,9 18 10 - - NW 1007,5 10 -
17.01.2019 08:00:00 1,1 -1,1 15 8 - - NW 1006,1 10 0,0
17.01.2019 07:00:00 2,8 0,2 15 8 - - NW 1004,7 10 0,0
17.01.2019 06:00:00 2,1 0,2 16 9 - - NW 1003,7 10 -
17.01.2019 05:00:00 2,0 0,4 13 7 - - WNW 1002,4 10 -
17.01.2019 04:00:00 2,7 1,1 13 7 - - W 1002,0 10 0,0
17.01.2019 03:00:00 3,9 2,4 15 8 - - W 1001,7 10 0,3
17.01.2019 02:00:00 3,6 2,1 16 9 - - WSW 1001,7 10 0,0
17.01.2019 01:00:00 3,2 1,6 15 8 - - WSW 1001,3 10 -
17.01.2019 00:00:00 3,3 1,8 16 9 - - SW 1001,3 10 -
16.01.2019 23:00:00 2,3 1,0 16 9 - - SW 1001,7 10 -
16.01.2019 22:00:00 2,4 1,1 13 7 - - SW 1001,7 10 -
16.01.2019 21:00:00 2,5 0,9 15 8 - - SW 1001,3 10 -
16.01.2019 20:00:00 3,6 2,0 16 9 - - WSW 1001,0 10 -
16.01.2019 19:00:00 4,5 3,0 16 9 - - WSW 1000,7 10 0,0
16.01.2019 18:00:00 5,0 3,5 11 6 - - W 1000,7 10 0,3
16.01.2019 17:00:00 5,5 4,0 15 8 - - WNW 1001,0 10 1,0
16.01.2019 16:00:00 6,3 4,8 24 13 - - WNW 1000,7 9 1,0
16.01.2019 15:00:00 9,6 7,2 18 10 - - SSW 999,0 8 -
16.01.2019 14:00:00 9,2 7,1 24 13 - - SSW 999,6 10 0,0
16.01.2019 13:00:00 9,2 7,3 26 14 - - SSW 1000,7 10 0,0
16.01.2019 12:00:00 8,9 7,3 21 11 - - SSW 1001,7 10 0,0
16.01.2019 11:00:00 8,7 7,0 24 13 - - SSW 1003,0 10 0,0
16.01.2019 10:00:00 9,0 6,4 28 15 - - SSW 1003,7 10 -
16.01.2019 09:00:00 8,8 6,1 24 13 - - SSW 1012,8 10 -
16.01.2019 08:00:00 8,8 6,1 24 13 - - SW 1012,8 10 -
16.01.2019 07:00:00 8,9 5,6 26 14 - - SW 1012,8 10 -
16.01.2019 06:00:00 8,9 5,6 28 15 - - SW - 10 -
16.01.2019 05:00:00 8,5 5,4 24 13 - - SW 1006,8 10 -
16.01.2019 04:00:00 8,0 4,8 24 13 - - SW 1007,4 10 -
16.01.2019 03:00:00 7,8 4,7 22 12 - - SSW 1008,5 10 -
16.01.2019 02:00:00 8,1 4,5 26 14 - - SW 1009,5 10 -
16.01.2019 01:00:00 8,0 4,6 22 12 - - SW 1010,1 10 -
16.01.2019 00:00:00 8,2 4,8 18 10 - - SW 1010,8 10 -
15.01.2019 23:00:00 8,0 5,1 26 14 - - SW 1011,8 10 -
15.01.2019 22:00:00 7,9 5,4 28 15 - - SW 1012,5 10 -
15.01.2019 21:00:00 8,1 5,2 24 13 - - SW 1012,9 10 -
15.01.2019 20:00:00 8,3 5,2 29 16 - - SW 1013,5 10 -
15.01.2019 19:00:00 8,6 5,0 28 15 - - SW 1013,5 10 0,0
15.01.2019 18:00:00 8,8 5,0 26 14 - - SW 1013,9 10 0,0
15.01.2019 17:00:00 7,6 4,7 16 9 - - SW 1014,6 10 -
15.01.2019 16:00:00 7,4 4,9 16 9 - - SW 1015,2 10 -
15.01.2019 15:00:00 8,3 5,1 22 12 - - WSW 1015,2 10 -
15.01.2019 14:00:00 10,0 5,4 26 14 - - WSW 1015,6 10 -
15.01.2019 13:00:00 9,9 4,9 26 14 - - WSW 1016,3 10 0,0
15.01.2019 12:00:00 9,5 4,7 31 17 - - WSW 1016,9 10 0,0
15.01.2019 11:00:00 8,6 4,6 28 15 - - WSW 1017,6 10 -
15.01.2019 10:00:00 7,0 3,6 24 13 - - WSW 1017,6 10 -
15.01.2019 09:00:00 5,8 2,8 26 14 - - SW 1017,6 10 -
15.01.2019 08:00:00 5,0 2,4 21 11 - - WSW 1018,0 10 -
15.01.2019 07:00:00 4,0 1,5 15 8 - - SW 1018,3 10 -
15.01.2019 06:00:00 3,3 1,0 16 9 - - SW 1018,6 10 -
15.01.2019 05:00:00 2,4 0,1 16 9 - - SW 1019,0 10 -
15.01.2019 04:00:00 2,8 0,4 16 9 - - WSW 1019,3 10 -
15.01.2019 03:00:00 2,2 0,3 16 9 - - SW 1019,6 10 -
15.01.2019 02:00:00 2,3 0,2 15 8 - - WSW 1020,3 10 -
15.01.2019 01:00:00 3,4 1,1 21 11 - - WSW 1020,7 10 -
15.01.2019 00:00:00 4,2 1,7 16 9 - - WSW 1021,0 10 -
14.01.2019 23:00:00 5,0 2,7 16 9 - - WSW 1021,0 10 -
14.01.2019 22:00:00 3,0 1,4 13 7 - - WSW 1021,0 10 -
14.01.2019 21:00:00 4,6 2,8 13 7 - - W 1021,3 10 -
14.01.2019 20:00:00 4,0 2,2 13 7 - - WSW 1021,0 10 -
14.01.2019 19:00:00 3,5 1,7 5 3 - - S 1021,3 10 -
14.01.2019 18:00:00 2,7 1,1 9 5 - - WSW 1021,0 10 -
14.01.2019 17:00:00 3,6 1,5 5 3 - - W 1021,0 10 -
14.01.2019 16:00:00 6,1 3,1 0 0 - - N 1021,0 10 -
14.01.2019 15:00:00 7,3 2,8 9 5 - - NW 1020,3 10 -
14.01.2019 14:00:00 7,3 3,2 15 8 - - NW 1020,0 10 1,3
14.01.2019 13:00:00 7,2 3,1 13 7 - - WNW 1020,0 10 -
14.01.2019 12:00:00 7,1 3,0 13 7 - - N 1019,6 10 -
14.01.2019 11:00:00 6,5 3,1 11 6 - - NW 1019,6 10 -
14.01.2019 10:00:00 5,5 2,5 11 6 - - WNW 1019,0 10 0,0
14.01.2019 09:00:00 3,5 1,5 11 6 - - W 1018,3 10 0,0
14.01.2019 08:00:00 4,1 2,0 11 6 - - WNW 1017,3 10 -
14.01.2019 07:00:00 3,6 1,1 9 5 - - W 1016,6 10 -
14.01.2019 06:00:00 4,6 1,8 9 5 - - NW 1015,6 10 -
14.01.2019 05:00:00 5,1 2,1 16 9 - - WNW 1014,9 10 -
14.01.2019 04:00:00 4,4 1,9 13 7 - - W 1014,6 10 -
14.01.2019 03:00:00 5,3 2,3 16 9 - - WNW 1013,5 10 -
14.01.2019 02:00:00 5,6 2,2 18 10 - - WNW 1013,2 10 -
14.01.2019 01:00:00 6,2 2,1 21 11 - - WNW 1012,5 10 -
14.01.2019 00:00:00 6,1 2,2 21 11 - - WNW 1011,8 10 -
13.01.2019 23:00:00 6,5 2,6 24 13 - - WNW 1011,2 10 -
13.01.2019 22:00:00 6,9 2,6 22 12 - - WNW 1010,8 10 -
13.01.2019 21:00:00 7,3 2,2 22 12 - - WNW 1010,1 10 -
13.01.2019 20:00:00 8,0 2,5 24 13 - - WNW 1009,8 10 -
13.01.2019 19:00:00 8,8 3,2 31 17 - - WNW 1009,1 10 -
13.01.2019 18:00:00 10,0 6,2 24 13 50 27 WNW 1008,8 10 0,0
13.01.2019 17:00:00 10,9 6,0 28 15 48 26 W 1008,1 10 0,0
13.01.2019 16:00:00 10,6 7,1 22 12 - - WNW 1007,8 10 -
13.01.2019 15:00:00 10,3 7,9 26 14 - - WSW 1007,8 10 0,0
13.01.2019 14:00:00 10,0 7,9 29 16 52 28 W 1008,4 10 0,0
13.01.2019 13:00:00 10,7 7,0 37 20 55 30 W 1008,4 10 -
13.01.2019 12:00:00 10,6 6,4 39 21 59 32 W 1009,1 10 -
13.01.2019 11:00:00 10,6 6,5 29 16 - - W 1010,5 10 -
13.01.2019 10:00:00 10,3 6,4 21 11 - - W 1010,8 10 -
13.01.2019 09:00:00 10,3 6,3 28 15 - - W 1010,8 10 -
13.01.2019 08:00:00 10,2 6,5 28 15 - - W 1011,5 10 -
13.01.2019 07:00:00 10,2 6,3 29 16 - - W 1011,8 10 -
13.01.2019 06:00:00 9,9 6,4 29 16 - - W 1012,2 10 -
13.01.2019 05:00:00 10,3 6,6 24 13 - - W 1012,5 10 -
13.01.2019 04:00:00 10,4 6,5 18 10 - - W 1012,8 10 -
13.01.2019 03:00:00 10,5 6,6 28 15 - - W 1013,5 10 -
13.01.2019 02:00:00 10,9 6,8 26 14 - - W 1013,9 10 -
13.01.2019 01:00:00 10,4 6,9 22 12 - - W 1014,2 10 -
13.01.2019 00:00:00 10,5 7,2 29 16 - - W 1014,9 10 -
12.01.2019 23:00:00 10,0 7,1 24 13 - - W 1015,2 10 -
12.01.2019 22:00:00 9,3 6,6 22 12 - - W 1015,6 10 -
12.01.2019 21:00:00 8,7 5,8 26 14 - - W 1015,6 10 -
12.01.2019 20:00:00 8,6 5,5 24 13 - - W 1016,2 10 0,0
12.01.2019 19:00:00 8,3 5,4 26 14 - - W 1016,6 10 -
12.01.2019 18:00:00 8,2 5,3 24 13 - - W 1016,9 10 -
12.01.2019 17:00:00 8,3 5,2 28 15 - - W 1017,3 10 -
12.01.2019 16:00:00 8,7 5,3 31 17 - - W 1017,3 10 -
12.01.2019 15:00:00 9,1 5,3 31 17 - - W 1017,6 10 -
12.01.2019 14:00:00 9,4 5,6 28 15 - - W 1017,6 10 -
12.01.2019 13:00:00 9,3 6,0 28 15 - - W 1018,6 10 -
12.01.2019 12:00:00 9,2 6,3 31 17 - - W 1019,0 10 -

tt = Température de l'air
td = dewpoint
ff = Vitesse du vent
fx = gusts
dd = Direction du vent
ppp = reduced air pressure
vv = visibility
rr = Quantités de précipitations

stations d'obs. à proximité